Location: Unspecified
(0.0000°N, 0.0000°E)
Time: 20:52:15
(UTC+00:00)

Vanguard 2 Rocket - Pass Details

Date: 05 October 2023
Orbit: 553 x 3298 km, 32.9° (Epoch: 07 October)

Event Time Altitude Azimuth Distance (km) Brightness Sun altitude
Rises 11:03:15 0° 312° (NW) 6,125 11.0 77.7°
Reaches altitude 10° 11:09:32 10° 330° (NNW) 5,591 11.0 79.2°
Maximum altitude 11:20:09 18° 7° (N) 5,463 11.1 81.5°
Drops below altitude 10° 11:31:55 10° 44° (NE) 6,274 11.3 83.7°
Sets 11:39:47 0° 61° (ENE) 7,149 11.5 84.8°
